Startseite
Über Mich
AHP4
Galerie
Sehschlangen
Tourenbuch
Bookmarks
Elektronik
Bewertung
Geschichten
[Tagesmessung] [Jahreswerte] [Information]

Messwerte vom 02.03.2022

Die letzten Messwerte von 23:58:48 Uhr:
KategorieMesswert
Temperatur [°C]-3
Luftdruck [mBar]1006
Sonneneinstrahlung0
Wind [km/h]0 aus Nordost
Niederschlag [l/m²]0
rel.Luftfeucht.86.4%
CO2 [ppm]536

Diagramme
Messwerte vom 02.03.2022
Tagesaggregation
KategorieMinimumMaximumSchnittSumme
Temperatur [°C]-3152.0856
Luftdruck [mBar]100610131009.0251
Sonneneinstrahlung24694.9081
Wind [km/h]0
rF [%]33.990.471.42
Niederschlag [l/m²]0
CO2 [ppm]403723514.6
Einordnung alsFrosttag
Vegetationstag

Messungen an benachbarten Tagen: Zur Jahresaggregation 2022
Tabelle aller Messwerte
UhrzeitTemperatur [°C]Luftdruck [mBar]SonneWind [km/h]RichtungRegen [l/m²]rF [%]CO2 [ppm]
00:01:48 -1 1012 0 0 NW 0 81 516
00:04:48 -1 1013 0 0 NW 0 81.1 504
00:07:47 -1 1012 0 0 NW 0 81.7 501
00:10:49 -1 1012 0 0 NW 0 81.8 501
00:13:47 -1 1012 0 0 NW 0 81.8 501
00:16:48 -1 1012 0 0 NW 0 81.8 495
00:19:48 -1 1012 0 0 NW 0 82.1 487
00:22:46 -1 1012 0 0 NW 0 82.5 485
00:25:47 -1 1013 0 0 NW 0 83 488
00:28:46 -1 1013 0 0 O 0 83 500
00:31:48 -1 1012 0 0 O 0 83 498
00:34:47 -1 1012 0 0 O 0 82.8 495
00:37:46 -1 1012 0 0 O 0 82.8 486
00:40:48 -1 1012 0 0 O 0 82.9 485
00:43:48 -1 1012 0 0 O 0 83.4 479
00:46:45 -1 1013 0 0 O 0 83.7 477
00:49:46 -1 1012 0 0 O 0 83.5 480
00:52:45 -1 1012 0 0 O 0 83.7 481
00:55:46 -1 1013 0 0 O 0 83.4 483
00:58:47 -1 1012 0 0 O 0 83.4 483
01:01:45 -1 1012 0 0 O 0 83.5 480
01:04:45 -1 1012 0 0 O 0 83.5 483
01:07:47 -1 1012 0 0 O 0 83.7 481
01:10:47 -1 1012 0 0 O 0 83.9 480
01:13:45 -1 1012 0 0 O 0 83.8 471
01:16:45 -1 1012 0 0 O 0 83.4 471
01:19:46 -1 1012 0 0 O 0 83.1 474
01:22:48 -1 1012 0 0 O 0 83 472
01:25:46 -1 1012 0 0 O 0 83.6 475
01:28:48 -1 1012 0 0 O 0 83.7 478
01:31:48 -1 1012 0 0 O 0 83.7 475
01:34:46 -1 1012 0 0 O 0 83.6 468
01:37:47 -1 1013 0 0 O 0 83.5 466
01:40:46 -1 1012 0 0 O 0 83.3 469
01:43:46 -1 1012 0 0 O 0 83.3 480
01:46:47 -1 1012 0 0 O 0 83.5 472
01:49:50 -1 1012 0 0 O 0 83.2 469
01:52:45 -1 1013 0 0 O 0 83 468
01:55:45 -1 1012 0 0 O 0 82.9 469
01:58:47 -1 1012 0 0 O 0 83 474
02:01:48 -1 1012 0 0 O 0 83 471
02:04:48 -1 1012 0 0 O 0 83.4 478
02:07:46 -1 1012 0 0 O 0 83.4 466
02:10:46 -1 1012 0 0 O 0 83.4 463
02:13:48 -1 1012 0 0 O 0 83 465
02:16:47 -1 1012 0 0 O 0 83.2 463
02:19:47 -1 1012 0 0 O 0 83.4 465
02:22:47 -1 1012 0 0 O 0 82.8 466
02:25:47 -1 1012 0 0 O 0 82.7 463
02:28:47 -1 1012 0 0 O 0 82.9 462
02:31:48 -1 1012 0 0 O 0 82.9 467
02:34:46 -1 1012 0 0 O 0 83.1 468
02:37:47 -1 1011 0 0 O 0 83.1 471
02:40:48 -1 1012 0 0 O 0 83.4 462
02:43:47 -1 1012 0 0 O 0 83.6 468
02:46:48 -1 1012 0 0 O 0 83.6 468
02:49:47 -1 1011 0 0 O 0 83.5 465
02:52:47 -1 1011 0 0 O 0 83.4 463
02:55:47 -1 1010 0 0 O 0 83.5 463
02:58:47 -1 1011 0 0 NW 0 83.8 460
03:01:47 -1 1011 0 0 NW 0 84.1 462
03:04:49 -1 1012 0 0 NW 0 84.3 462
03:07:47 -1 1011 0 0 NW 0 84.9 457
03:10:47 -1 1011 0 0 NW 0 85.3 463
03:13:47 -1 1010 0 0 NW 0 85.1 459
03:16:47 -1 1011 0 0 NW 0 84.9 460
03:19:49 -1 1010 0 0 NW 0 84.8 456
03:22:47 -1 1011 0 0 NW 0 84.9 457
03:25:48 -1 1011 0 0 NW 0 84.8 459
03:28:46 -1 1011 0 0 NW 0 84.8 454
03:31:48 -1 1010 0 0 NW 0 85.3 454
03:34:47 -1 1011 0 0 NW 0 85.4 451
03:37:50 -1 1011 0 0 NW 0 85.5 446
03:40:48 -1 1010 0 0 NW 0 85.5 451
03:43:47 -1 1010 0 0 NW 0 85.5 453
03:46:44 -1 1010 0 0 0 85.5 442
03:49:45 -1 1010 0 0 O 0 85.5 436
03:52:45 -1 1010 0 0 N 0 85.5 439
03:55:45 -1 1010 0 0 N 0 85.6 445
03:58:46 -1 1010 0 0 N 0 85.4 448
04:01:46 -1 1010 0 0 N 0 85.2 442
04:04:47 -1 1010 0 0 N 0 85.2 438
04:07:47 -1 1010 0 0 N 0 85.4 435
04:10:45 -1 1010 0 0 N 0 85.5 443
04:13:47 -1 1010 0 0 N 0 85.5 442
04:16:45 -1 1010 0 0 N 0 85.5 440
04:19:47 -1 1010 0 0 N 0 85.8 439
04:22:44 -1 1010 0 0 N 0 85.9 445
04:25:46 -1 1010 0 0 N 0 86.1 453
04:28:45 -1 1010 0 0 N 0 86.2 454
04:31:46 -1 1010 0 0 N 0 86.1 448
04:34:44 -1 1010 0 0 N 0 85.7 442
04:37:45 -2 1010 0 0 N 0 85.7 445
04:40:46 -2 1010 0 0 N 0 85.9 448
04:43:46 -2 1010 0 0 N 0 86.4 443
04:46:46 -2 1010 0 0 N 0 86.6 448
04:49:45 -2 1011 0 0 N 0 86.5 448
04:52:45 -2 1010 0 0 N 0 86.7 442
04:55:45 -2 1010 0 0 N 0 87 441
04:58:47 -2 1010 0 0 O 0 87.3 436
05:01:44 -2 1010 0 0 O 0 87.3 434
05:04:47 -2 1010 0 0 O 0 87.4 428
05:07:46 -2 1011 0 0 O 0 87.4 436
05:10:44 -2 1011 0 0 O 0 87.4 434
05:13:44 -2 1010 0 0 O 0 87.5 436
05:16:45 -2 1010 0 0 O 0 87.4 434
05:19:47 -2 1010 0 0 O 0 87.7 439
05:22:47 -2 1010 0 0 O 0 88.1 444
05:25:47 -2 1010 0 0 O 0 88.2 448
05:28:45 -2 1010 0 0 O 0 88.5 445
05:31:45 -2 1010 0 0 O 0 88.7 442
05:34:45 -2 1010 0 0 O 0 88.6 436
05:37:48 -2 1010 0 0 O 0 88.6 434
05:40:46 -2 1010 0 0 O 0 88.9 433
05:43:46 -2 1010 0 0 O 0 89 442
05:46:45 -2 1010 0 0 O 0 89.1 442
05:49:44 -2 1010 0 0 O 0 89.1 441
05:52:47 -2 1010 0 0 O 0 89.3 439
05:55:46 -2 1009 0 0 O 0 89.4 436
05:58:46 -2 1010 0 0 O 0 89.3 433
06:01:47 -2 1010 0 0 O 0 89.2 436
06:04:46 -2 1010 0 0 O 0 89.2 430
06:07:47 -2 1010 0 0 O 0 89.5 433
06:10:47 -2 1010 0 0 O 0 89.4 436
06:13:47 -2 1010 0 0 O 0 89.4 433
06:16:46 -2 1010 0 0 O 0 89.5 436
06:19:45 -2 1009 0 0 O 0 89.4 422
06:22:47 -2 1010 0 0 O 0 89.4 424
06:25:44 -2 1010 0 0 O 0 89.4 433
06:28:47 -2 1010 0 0 O 0 89.4 442
06:31:46 -2 1010 0 0 O 0 89.5 442
06:34:46 -2 1010 0 0 O 0 89.5 436
06:37:46 -2 1010 0 0 O 0 89.5 441
06:40:45 -2 1010 4 0 O 0 89.6 436
06:43:46 -2 1010 7 0 O 0 89.5 439
06:46:48 -2 1010 11 0 O 0 89.5 436
06:49:49 -2 1010 17 0 O 0 89.6 436
06:52:47 -2 1010 24 0 O 0 89.9 430
06:55:46 -2 1010 33 0 O 0 89.9 442
06:58:47 -2 1010 42 0 O 0 90.1 445
07:01:46 -2 1010 51 0 O 0 90.2 447
07:04:49 -2 1010 61 0 O 0 90.1 439
07:07:46 -2 1010 71 0 O 0 90.2 439
07:10:48 -2 1010 80 0 O 0 90.2 439
07:13:49 -2 1010 89 0 O 0 90.1 436
07:16:46 -2 1010 99 0 O 0 90.2 433
07:19:46 -2 1010 107 0 O 0 90.2 431
07:22:46 -2 1010 115 0 O 0 90.2 427
07:25:46 -2 1010 122 0 O 0 90.1 445
07:28:47 -2 1009 127 0 O 0 90.2 489
07:31:48 -2 1010 133 0 O 0 90.2 518
07:34:48 -1 1010 138 0 O 0 90.3 524
07:37:46 -1 1010 143 0 O 0 90.3 506
07:40:47 -1 1010 148 0 O 0 90.3 501
07:43:46 -1 1010 152 0 O 0 90.4 509
07:46:48 -1 1010 156 0 O 0 90.4 503
07:49:48 -1 1010 159 0 O 0 90.4 503
07:52:46 -1 1010 163 0 O 0 90.2 500
07:55:47 -1 1010 165 0 O 0 90.1 495
07:58:50 -1 1010 167 0 O 0 90.1 497
08:01:47 -1 1010 168 0 O 0 90.1 501
08:04:47 -1 1010 170 0 O 0 90.1 503
08:07:47 -1 1010 174 0 O 0 90 500
08:10:47 -1 1010 177 0 O 0 89.8 501
08:13:47 -1 1010 180 0 O 0 89.6 497
08:16:47 0 1010 183 0 O 0 89.3 497
08:19:50 0 1010 184 0 O 0 88.9 496
08:22:46 0 1010 184 0 O 0 88.5 497
08:25:49 0 1010 185 0 O 0 88.1 503
08:28:48 0 1010 186 0 O 0 87.9 506
08:31:46 0 1010 186 0 O 0 87.7 509
08:34:46 0 1010 187 0 O 0 87.5 506
08:37:48 0 1010 187 0 O 0 87 503
08:40:49 0 1010 188 0 N 0 86.6 497
08:43:48 0 1010 189 0 N 0 86.4 489
08:46:48 0 1010 191 0 N 0 85.6 485
08:49:48 0 1010 192 0 N 0 85.5 483
08:52:46 0 1010 194 0 NO 0 85.1 488
08:55:49 0 1010 195 0 NO 0 84.1 497
08:58:48 0 1010 197 0 NO 0 83.8 503
09:01:46 1 1010 198 0 N 0 83.9 492
09:04:50 1 1010 200 0 NO 0 83.7 483
09:07:46 1 1010 201 0 O 0 83.5 483
09:10:48 1 1010 203 0 O 0 83.3 486
09:13:48 1 1010 204 0 O 0 83.1 487
09:16:47 1 1010 205 0 O 0 82.5 477
09:19:47 1 1010 205 0 N 0 81.8 477
09:22:47 1 1010 206 0 N 0 81.1 475
09:25:47 1 1010 207 0 N 0 81.1 477
09:28:46 1 1010 208 0 O 0 81 471
09:31:48 1 1010 209 0 O 0 80.8 478
09:34:46 2 1010 210 0 N 0 80.9 477
09:37:49 2 1010 210 0 N 0 80.6 472
09:40:47 2 1010 210 0 NO 0 79.5 474
09:43:47 2 1010 210 0 N 0 79.3 468
09:46:46 2 1010 210 0 O 0 78 477
09:49:47 2 1010 211 0 N 0 78.1 478
09:52:47 2 1010 211 0 N 0 77.5 483
09:55:46 2 1010 211 0 N 0 77.2 471
09:58:47 2 1010 211 0 NO 0 76.9 465
10:01:47 2 1010 211 0 O 0 77.1 460
10:04:47 2 1010 211 0 N 0 76.1 458
10:07:47 2 1010 211 0 O 0 75.9 453
10:10:46 2 1010 211 0 O 0 76.3 445
10:13:47 3 1010 211 0 SO 0 74.6 445
10:16:47 3 1010 210 0 S 0 75.4 443
10:19:49 3 1010 210 0 NO 0 75.1 451
10:22:46 3 1010 212 0 O 0 74.5 450
10:25:47 3 1010 212 0 NO 0 74 442
10:28:45 3 1010 212 0 O 0 73 444
10:31:47 3 1010 213 0 O 0 71.8 445
10:34:49 3 1010 213 0 N 0 72.7 436
10:37:49 3 1010 213 0 NO 0 72.8 407
10:40:47 3 1010 213 0 SO 0 73.1 407
10:43:47 4 1010 213 0 N 0 73.6 407
10:46:47 4 1010 214 0 S 0 73.7 404
10:49:50 4 1010 214 0 SO 0 73.5 419
10:52:48 4 1010 215 0 O 0 73.4 422
10:55:47 4 1010 215 0 O 0 73.2 430
10:58:47 4 1010 216 0 SO 0 73.3 427
11:01:48 4 1009 216 0 NO 0 72.1 527
11:04:46 4 1010 215 0 O 0 72 529
11:07:47 5 1010 213 0 O 0 72.7 536
11:11:00 5 1010 214 0 SO 0 71.9 545
11:13:47 5 1010 212 0 O 0 72.3 541
11:16:45 5 1010 211 0 S 0 71.6 548
11:19:48 5 1010 213 0 SO 0 71.1 560
11:22:47 5 1010 214 0 NO 0 70.5 564
11:25:47 5 1010 215 0 W 0 69.2 570
11:28:47 5 1010 215 0 S 0 68.7 573
11:31:47 5 1010 215 0 SO 0 67.7 570
11:34:48 5 1010 214 0 SO 0 67.8 570
11:37:47 5 1010 215 0 SO 0 68.1 574
11:40:47 6 1010 214 0 O 0 67.8 572
11:43:46 6 1010 212 0 S 0 68.4 577
11:46:47 7 1009 212 0 NW 0 67.1 569
11:49:31 5 1010 212 0 NO 0 60.1 574
11:52:47 7 1010 212 0 N 0 61.9 578
11:55:46 7 1010 211 0 N 0 60.8 585
11:58:47 7 1010 212 0 NO 0 60.3 603
12:01:49 8 1009 212 0 SO 0 62 605
12:04:49 8 1010 213 0 O 0 57 605
12:07:48 8 1010 214 0 SO 0 57 592
12:10:50 9 1009 215 0 SW 0 58.9 609
12:13:48 11 1010 214 0 SO 0 59.6 611
12:16:48 11 1010 213 0 N 0 49.8 608
12:19:49 9 1010 214 0 NW 0 50.2 601
12:22:46 9 1009 215 0 0 52.1 609
12:25:51 9 1010 216 0 N 0 54.4 618
12:28:46 8 1010 217 0 NO 0 54.3 635
12:31:49 8 1010 217 0 SO 0 53.9 644
12:34:48 8 1009 218 0 W 0 54.4 635
12:37:45 8 1010 218 0 N 0 54.4 620
12:40:48 8 1010 218 0 N 0 55.2 624
12:43:48 9 1010 218 0 NO 0 54.4 644
12:46:45 9 1010 219 0 N 0 53.6 661
12:49:47 8 1010 221 0 N 0 53.5 680
12:52:50 8 1010 222 0 NW 0 53.7 688
12:55:50 9 1010 224 0 NO 0 52.7 697
12:58:48 9 1010 225 0 O 0 51.3 694
13:01:47 9 1010 226 0 O 0 51.1 691
13:04:48 9 1009 226 0 NO 0 51.6 696
13:07:48 9 1009 227 0 N 0 50.8 708
13:10:48 10 1010 227 0 S 0 52 716
13:13:49 11 1010 228 0 S 0 53.1 723
13:16:49 12 1010 228 0 NW 0 49.1 714
13:19:49 12 1009 228 0 SW 0 47.7 700
13:22:50 11 1009 228 0 NW 0 43.6 679
13:25:49 11 1009 228 0 SO 0 45.7 673
13:28:48 12 1010 229 0 SO 0 48 674
13:31:48 13 1010 229 0 S 0 49.4 678
13:34:48 14 1009 229 0 SO 0 40.8 679
13:37:46 12 1009 229 0 N 0 40.4 687
13:40:48 11 1009 229 0 N 0 40.4 693
13:43:46 10 1009 230 0 N 0 43.1 694
13:46:46 10 1009 230 0 N 0 44.1 697
13:49:47 10 1009 232 0 N 0 43.6 705
13:52:47 10 1009 234 0 O 0 44.7 703
13:55:47 10 1009 235 0 O 0 45 705
13:58:49 11 1010 235 0 SO 0 47.8 709
14:01:49 11 1009 236 0 NO 0 41.9 714
14:04:47 11 1008 242 0 S 0 41.6 712
14:07:48 11 1009 242 0 N 0 39.6 711
14:10:48 11 1009 243 0 SW 0 40.8 708
14:13:47 12 1009 243 0 SO 0 41.8 711
14:16:47 13 1009 243 0 NO 0 36.4 721
14:19:49 12 1009 243 0 NO 0 35.9 710
14:22:50 12 1008 244 0 SO 0 40.9 708
14:25:48 13 1009 244 0 SO 0 40.5 708
14:28:48 14 1009 244 0 S 0 38.6 709
14:31:50 14 1009 244 0 SW 0 38.4 714
14:34:48 15 1009 244 0 S 0 36.1 715
14:37:48 14 1008 245 0 O 0 35.3 723
14:40:46 13 1008 245 0 N 0 35.7 711
14:43:46 12 1009 245 0 N 0 36.1 670
14:46:47 11 1009 245 0 N 0 36.4 642
14:49:47 11 1009 245 0 O 0 38.5 647
14:52:48 12 1009 245 0 NO 0 39.8 673
14:55:48 12 1009 245 0 SO 0 39.8 695
14:58:48 13 1009 245 0 SO 0 40.2 592
15:01:47 14 1008 245 0 S 0 39.1 492
15:04:48 14 1008 245 0 SO 0 37.3 589
15:07:55 14 1008 245 0 SO 0 34.1 623
15:10:50 14 1009 246 0 SO 0 33.9 642
15:13:48 13 1008 246 0 W 0 34.1 644
15:16:49 12 1008 246 0 NO 0 34.2 651
15:19:48 11 1008 245 0 O 0 34.3 650
15:22:48 11 1009 246 0 NO 0 35.4 653
15:25:50 10 1008 245 0 SO 0 38.9 656
15:28:46 10 1008 242 0 SO 0 39.6 653
15:31:47 10 1008 241 0 S 0 41.2 655
15:34:46 10 1008 241 0 S 0 41.4 654
15:37:48 10 1009 238 0 SO 0 39 653
15:40:49 9 1008 228 0 NO 0 38.8 653
15:43:49 9 1008 230 0 NO 0 40 646
15:46:47 9 1009 224 0 0 40.2 639
15:49:49 8 1008 227 0 N 0 40.9 644
15:52:49 8 1008 224 0 NO 0 41.7 645
15:55:48 8 1007 222 0 N 0 41.6 646
15:58:46 8 1008 223 0 N 0 42 644
16:04:50 8 1008 218 0 O 0 42.8 630
16:07:46 8 1008 220 0 O 0 43 644
16:10:49 8 1007 221 0 NW 0 43.9 646
16:13:47 8 1007 220 0 N 0 43.6 645
16:16:49 8 1008 218 0 NO 0 43.2 661
16:19:47 8 1007 223 0 O 0 43.7 677
16:22:47 8 1007 225 0 O 0 43.8 680
16:25:48 8 1007 218 0 NO 0 43.8 673
16:28:50 8 1008 215 0 SO 0 43.8 664
16:31:48 8 1008 226 0 NO 0 43.2 656
16:34:48 8 1007 218 0 NO 0 42.6 655
16:37:47 8 1007 215 0 O 0 42.3 653
16:40:47 8 1007 222 0 SO 0 42.6 647
16:43:48 8 1007 222 0 NO 0 44.1 644
16:46:45 7 1007 218 0 O 0 44.5 635
16:49:47 7 1007 217 0 NO 0 44.2 633
16:52:46 7 1007 213 0 O 0 44.3 632
16:55:48 7 1008 210 0 SO 0 44.1 624
16:58:46 7 1007 206 0 O 0 43.9 621
17:01:49 7 1007 203 0 O 0 44.9 618
17:04:47 7 1007 202 0 O 0 45.1 619
17:07:47 7 1007 200 0 O 0 45.1 609
17:10:46 7 1007 199 0 O 0 45.7 605
17:13:47 7 1006 197 0 NO 0 45.9 601
17:16:48 6 1007 195 0 O 0 45.8 597
17:19:48 6 1007 193 0 O 0 46 594
17:22:48 6 1007 190 0 O 0 46 595
17:25:47 6 1007 187 0 O 0 46.7 589
17:28:47 6 1007 184 0 O 0 47.3 582
17:31:46 6 1007 180 0 O 0 48 582
17:34:47 6 1006 176 0 O 0 48.7 571
17:37:47 5 1007 171 0 O 0 49.2 568
17:40:48 5 1006 165 0 O 0 49.6 565
17:43:47 5 1007 158 0 O 0 50.1 566
17:46:46 5 1006 151 0 O 0 50.9 562
17:49:46 5 1007 141 0 O 0 51.5 559
17:52:46 4 1007 132 0 O 0 51.7 553
17:55:48 4 1007 120 0 SO 0 52.4 553
17:58:47 4 1007 108 0 SO 0 53.2 548
18:01:47 4 1006 94 0 SO 0 53.6 545
18:04:47 4 1007 80 0 SO 0 54.1 542
18:07:47 4 1007 63 0 SO 0 54.5 545
18:10:47 3 1006 48 0 SO 0 54.8 544
18:13:47 3 1007 35 0 SO 0 55.4 538
18:16:52 3 1007 23 0 SO 0 55.8 535
18:19:47 3 1007 15 0 SO 0 56.2 527
18:22:48 3 1008 9 0 SO 0 56.9 524
18:25:46 3 1007 5 0 SO 0 57.6 521
18:28:49 3 1007 3 0 SO 0 58.2 515
18:31:46 3 1006 0 0 NO 0 59 509
18:34:47 3 1006 0 0 NO 0 60.9 509
18:37:45 3 1007 0 0 NO 0 61.8 515
18:40:46 3 1007 0 0 NO 0 62.2 515
18:43:46 3 1007 0 0 NO 0 62 510
18:46:48 3 1007 0 0 NO 0 62 499
18:49:48 2 1006 0 0 NO 0 61.8 501
18:52:48 2 1006 0 0 NO 0 62.2 497
18:55:47 2 1007 0 0 NO 0 62.6 494
18:58:47 2 1007 0 0 NO 0 62.9 495
19:01:47 2 1006 0 0 NO 0 63.2 492
19:04:46 2 1007 0 0 NO 0 63.8 491
19:07:47 1 1007 0 0 NO 0 64.4 489
19:10:47 1 1007 0 0 NO 0 65 480
19:13:45 1 1007 0 0 NO 0 65.4 471
19:16:45 1 1007 0 0 NO 0 65.5 471
19:19:45 1 1007 0 0 S 0 65.5 471
19:22:48 1 1006 0 0 SO 0 66.1 468
19:25:47 1 1006 0 0 SO 0 66.8 462
19:28:46 1 1007 0 0 SO 0 67.2 407
19:31:47 0 1007 0 0 SO 0 67.5 407
19:34:48 0 1007 0 0 SO 0 68.2 407
19:37:47 0 1007 0 0 SO 0 68.2 407
19:40:48 0 1007 0 0 SO 0 68.8 404
19:43:46 0 1007 0 0 SO 0 69.6 404
19:46:47 0 1007 0 0 SO 0 70.2 407
19:49:46 0 1007 0 0 SO 0 70.8 404
19:52:45 0 1007 0 0 NO 0 72.9 404
19:55:46 0 1007 0 0 N 0 73.9 407
19:58:48 0 1007 0 0 S 0 73.8 404
20:01:48 0 1006 0 0 S 0 72.6 407
20:04:49 0 1007 0 0 NW 0 72.6 403
20:07:48 0 1006 0 0 SO 0 73.1 407
20:10:49 0 1007 0 0 SO 0 72.6 404
20:13:47 0 1006 0 0 SO 0 75.1 406
20:16:49 0 1007 0 0 NW 0 75 407
20:19:48 0 1006 0 0 SO 0 74.1 407
20:22:50 -1 1006 0 0 SO 0 73.8 407
20:25:47 -1 1007 0 0 SO 0 74 407
20:28:47 -1 1007 0 0 SO 0 73.8 407
20:31:47 -1 1006 0 0 SO 0 74.1 404
20:34:47 -1 1006 0 0 SO 0 74.7 408
20:37:47 -1 1006 0 0 SO 0 74.6 404
20:40:48 -1 1007 0 0 SO 0 74.6 404
20:43:49 -1 1007 0 0 SO 0 74.9 404
20:46:48 -1 1007 0 0 SO 0 75.1 407
20:49:48 -1 1006 0 0 SO 0 75 419
20:52:47 -1 1007 0 0 SO 0 75.2 410
20:55:46 -1 1006 0 0 SO 0 75 413
20:58:46 -1 1007 0 0 SO 0 75 416
21:01:49 -1 1007 0 0 NO 0 75.7 422
21:04:49 -1 1006 0 0 NO 0 77.1 422
21:07:48 -1 1006 0 0 SO 0 76.2 422
21:10:48 -1 1006 0 0 SO 0 76.1 433
21:13:47 -1 1006 0 0 SO 0 76.1 439
21:16:47 -2 1007 0 0 SO 0 76.3 434
21:19:48 -2 1006 0 0 SO 0 76.8 434
21:22:47 -2 1006 0 0 SO 0 77 439
21:25:47 -2 1007 0 0 SO 0 77.1 445
21:28:46 -2 1007 0 0 SO 0 76.9 454
21:31:48 -2 1007 0 0 SO 0 76.8 448
21:34:48 -2 1006 0 0 SO 0 76.8 452
21:37:48 -2 1007 0 0 SO 0 76.9 445
21:40:48 -2 1007 0 0 SO 0 77.1 448
21:43:46 -2 1007 0 0 SO 0 77.5 448
21:46:48 -2 1007 0 0 N 0 78.2 460
21:49:48 -2 1007 0 0 N 0 78.5 460
21:52:45 -2 1007 0 0 N 0 78.3 463
21:55:47 -2 1006 0 0 N 0 78.4 463
21:58:44 -2 1007 0 0 N 0 78.4 461
22:01:48 -2 1006 0 0 SO 0 78.4 468
22:04:48 -2 1006 0 0 SO 0 78.5 471
22:07:46 -2 1007 0 0 SO 0 78.7 475
22:10:50 -2 1007 0 0 SO 0 80.1 481
22:13:47 -2 1007 0 0 SO 0 80.2 483
22:16:48 -2 1007 0 0 SO 0 80.1 492
22:19:49 -2 1007 0 0 SO 0 80 487
22:22:49 -3 1007 0 0 SO 0 79.9 484
22:25:47 -3 1007 0 0 S 0 80 487
22:28:46 -2 1006 0 0 NO 0 81.5 486
22:31:49 -2 1007 0 0 SO 0 82.5 487
22:34:48 -2 1006 0 0 SO 0 82.3 488
22:37:49 -3 1007 0 0 SO 0 81.9 487
22:40:46 -3 1007 0 0 SO 0 81.9 489
22:43:49 -3 1007 0 0 SO 0 82.2 492
22:46:47 -3 1007 0 0 SO 0 82.3 500
22:49:50 -3 1007 0 0 SO 0 82.4 502
22:52:50 -3 1007 0 0 SO 0 82.8 507
22:55:50 -3 1006 0 0 SO 0 82.8 504
22:58:49 -3 1006 0 0 SO 0 83.2 504
23:01:47 -3 1006 0 0 SO 0 83.2 498
23:04:48 -3 1008 0 0 SO 0 83.4 506
23:07:47 -3 1007 0 0 SO 0 83.4 511
23:10:47 -3 1006 0 0 SO 0 83.5 514
23:13:48 -3 1006 0 0 SO 0 83.5 517
23:16:46 -3 1007 0 0 SO 0 83.5 517
23:19:51 -3 1006 0 0 SO 0 83.7 518
23:22:48 -3 1006 0 0 SO 0 83.8 513
23:25:49 -3 1006 0 0 SO 0 84 513
23:28:48 -3 1006 0 0 SO 0 84.8 519
23:31:47 -3 1007 0 0 SO 0 85.1 524
23:34:47 -3 1006 0 0 SO 0 85.3 527
23:37:51 -3 1007 0 0 SO 0 85 528
23:40:45 -3 1006 0 0 SO 0 84.7 533
23:43:52 -3 1006 0 0 SO 0 84.9 528
23:46:48 -3 1006 0 0 SO 0 85.3 524
23:49:48 -3 1008 0 0 SO 0 85.4 524
23:52:48 -3 1006 0 0 SO 0 85.4 526
23:55:49 -3 1006 0 0 NO 0 86.1 538
23:58:48 -3 1006 0 0 NO 0 86.4 536

Letzte Änderung : 22-Jul-2022
Copyright Jens Köhler, Wolfsburg, Obere Dorfstraße 10d